Wind_Speed
39 38 39 39 36 32 30 28 27 26 26 25 25 25 23 22 22 22 22 22 22 22 23 24 25 26 27 28 30 31 31 31 31 31 31 30 32 31 31 32 34 36 38
43 43 43 41 39 36 35 32 30 30 29 28 28 28 28 27 27 27 26 26 26 25 25 25 25 26 27 28 28 29 30 29 29 28 27 28 29 29 30 32 34 36 38
46 46 45 43 42 41 40 38 36 34 34 32 33 32 31 31 30 30 31 31 30 30 29 28 27 28 28 28 29 28 29 29 28 28 28 28 30 30 30 32 35 37 40
43 46 47 46 45 44 42 40 39 38 38 38 38 37 36 36 35 34 33 34 33 32 32 31 30 30 30 30 30 30 29 29 29 29 28 29 30 30 31 34 37 39 42
39 40 40 41 41 40 40 38 37 37 38 38 38 38 40 40 40 37 36 35 35 34 34 33 30 30 30 31 31 29 30 30 30 31 31 31 32 33 34 36 38 39 42
42 40 40 40 38 37 37 37 36 36 36 36 37 38 39 40 39 39 38 37 36 34 33 32 29 30 30 29 30 30 29 30 32 31 30 31 33 35 37 39 39 41 42
46 44 43 41 39 38 38 38 37 35 35 37 38 38 39 41 40 40 38 39 38 36 34 31 30 30 29 29 29 29 29 30 32 32 33 33 35 37 39 40 42 42 44
50 48 46 44 44 43 42 41 41 38 38 38 38 39 42 42 41 41 40 40 39 37 35 34 30 30 30 30 30 31 32 33 33 36 36 38 38 39 40 41 43 46 48
55 53 51 49 47 47 47 46 44 42 42 39 37 43 43 42 42 42 41 41 40 39 37 36 35 31 31 31 32 33 34 35 36 38 37 37 38 41 43 44 47 47 49
58 57 55 53 51 51 49 49 48 45 44 42 44 46 45 44 43 44 43 42 42 41 39 39 40 38 34 35 37 35 36 38 37 36 37 39 41 44 45 44 48 48 49
63 61 59 57 54 53 52 52 50 47 45 45 46 49 47 46 45 46 45 44 44 43 41 40 41 42 39 38 37 36 36 37 38 38 39 40 43 45 46 47 48 49 50
67 64 62 60 58 56 54 53 52 47 46 49 52 51 49 47 47 47 48 47 46 46 44 43 42 42 40 38 38 39 38 39 41 42 43 45 47 46 48 48 48 49 48
68 67 63 61 58 57 55 53 53 50 50 49 54 53 52 49 47 46 47 46 48 47 46 46 44 41 41 41 42 41 42 43 44 46 46 47 48 49 49 50 50 49 49
65 62 61 60 58 56 55 55 51 53 52 52 52 53 53 50 47 47 48 49 49 49 49 48 46 43 43 44 45 46 47 48 49 49 50 50 51 51 52 51 49 49 49
67 66 64 63 58 56 54 52 53 53 55 54 54 56 57 53 52 52 50 50 51 51 51 51 49 48 47 48 49 50 51 52 53 52 52 53 53 53 51 49 48 48 50
58 61 63 64 62 57 55 53 53 55 54 53 54 55 54 56 56 55 54 54 53 53 54 54 52 52 52 52 53 53 54 54 55 56 56 55 53 50 48 47 49 50 50
48 58 66 62 61 62 60 57 57 55 55 55 54 55 56 56 57 56 56 55 55 55 55 56 56 56 56 56 56 56 56 57 57 57 55 54 53 52 47 47 49 50 50
67 66 59 68 66 61 59 57 57 59 57 57 57 56 56 56 57 57 57 57 56 56 57 57 57 57 58 58 58 57 57 57 57 57 54 52 50 51 51 51 51 52 53
73 72 66 73 68 66 64 61 60 59 59 58 57 57 58 58 59 60 60 58 56 55 54 53 54 55 57 58 58 58 57 56 56 55 53 52 52 52 54 54 54 55 56
75 78 79 80 75 74 72 67 63 61 60 61 61 60 61 62 63 62 62 61 60 60 59 57 55 57 57 58 58 57 55 56 55 55 55 54 56 57 57 58 59 61 62
79 79 79 81 80 77 73 69 67 64 62 61 60 62 64 64 64 64 63 63 62 61 61 60 60 59 58 60 60 60 59 59 58 57 58 59 60 61 62 63 64 66 68
79 75 78 80 79 78 75 72 70 69 68 66 65 67 66 66 67 67 66 66 65 63 64 64 64 63 62 63 64 64 64 65 63 62 62 63 65 66 67 68 69 71 72
84 79 76 79 79 74 73 71 68 67 66 67 66 68 69 69 71 70 71 70 68 68 67 68 69 69 68 67 66 66 67 68 67 69 71 71 72 73 74 75 77 77 78
86 80 77 71 76 76 74 73 71 70 69 69 72 73 72 69 71 71 71 72 72 71 72 73 72 73 72 73 74 74 75 75 75 77 79 81 81 81 82 82 83 84 81
81 78 75 77 69 73 75 77 76 75 75 75 74 73 74 72 73 71 71 71 70 72 73 74 73 74 75 75 77 79 81 81 81 83 85 87 88 87 88 85 85 84 83
80 75 79 76 68 65 66 67 72 74 76 77 76 69 69 69 70 72 73 74 72 73 72 75 79 78 76 75 75 75 78 82 85 89 89 89 87 89 88 88 88 89 91
Wind_Direction
238 237 240 246 250 249 249 249 251 254 258 261 265 269 273 275 279 284 285 285 285 286 287 286 285 284 283 280 277 277 279 278 277 278 278 277 278 280 280 281 282 284 287
234 237 240 245 248 249 251 252 253 256 256 261 266 269 272 273 274 278 281 285 289 287 290 291 290 288 286 285 282 278 281 284 284 280 280 277 277 280 283 287 289 294 297
234 235 238 242 247 251 252 254 256 258 261 263 267 268 270 272 276 279 282 284 286 288 290 292 290 292 290 291 289 284 282 286 287 285 282 277 278 283 288 291 295 299 302
237 237 240 243 246 249 253 254 256 258 261 264 265 268 269 271 274 277 281 283 285 286 290 296 293 294 291 293 293 290 288 288 289 290 286 284 284 289 292 296 298 301 303
238 239 240 242 245 248 250 253 256 260 262 264 266 266 269 272 274 277 279 281 284 287 291 294 296 297 293 291 290 289 288 289 291 293 292 290 291 293 296 300 300 302 306
239 241 242 242 243 248 251 254 257 259 264 266 267 269 270 272 275 277 280 281 284 287 291 295 294 295 291 291 289 289 291 292 295 294 297 296 295 298 299 298 299 302 305
239 239 242 244 246 250 252 255 257 260 263 263 264 266 268 272 275 277 278 282 285 287 291 295 297 294 292 290 289 292 294 297 300 299 299 298 299 299 301 301 303 305 307
240 241 243 246 248 250 253 255 259 261 262 263 263 264 266 269 275 276 278 280 282 285 287 291 294 292 292 291 288 290 295 298 301 303 301 302 302 303 304 305 305 309 309
242 243 245 246 248 250 252 254 258 260 262 262 260 259 266 269 271 274 277 280 282 284 285 288 290 289 290 291 290 291 294 297 302 302 302 303 305 307 305 307 309 308 308
243 244 245 247 249 249 250 253 257 258 259 257 255 257 263 266 268 271 273 276 279 281 283 286 289 288 288 291 294 294 296 300 301 303 301 304 307 308 310 307 307 306 306
244 245 245 248 249 250 249 251 254 257 257 255 252 257 261 265 265 268 271 274 276 277 279 281 283 286 288 290 291 293 296 300 303 305 303 305 307 307 307 307 305 305 306
244 245 248 250 250 251 250 248 252 254 253 251 253 259 262 265 266 267 269 272 274 274 275 277 281 281 283 286 289 292 296 300 303 305 306 306 306 307 306 307 306 303 303
246 247 249 251 252 252 248 248 248 251 251 253 256 260 264 266 268 268 269 272 271 273 273 276 276 278 282 286 290 294 296 299 301 302 302 303 305 306 305 305 305 302 302
241 242 247 250 251 249 248 246 248 247 251 251 252 259 263 267 269 271 271 271 272 274 276 276 277 277 283 287 289 293 294 296 298 300 301 302 303 304 306 305 303 298 301
245 248 249 249 248 248 245 247 247 249 251 253 255 258 262 268 270 269 270 271 273 275 277 279 280 281 283 286 288 289 291 294 295 298 300 300 303 304 307 304 300 300 299
244 249 248 248 247 247 246 251 250 251 252 253 256 261 264 266 268 270 271 272 273 275 277 279 281 283 285 286 287 288 290 292 295 297 299 301 304 303 302 301 301 299 301
222 254 253 246 246 247 249 251 252 251 254 255 257 259 263 265 268 269 270 272 275 276 279 281 282 283 285 286 288 289 291 292 294 297 297 299 299 300 298 299 299 299 299
224 221 245 249 247 247 250 251 252 252 253 257 259 261 263 264 267 269 271 273 276 278 280 282 282 283 284 285 286 287 288 290 292 293 294 296 296 298 298 298 299 301 305
228 228 224 240 244 247 251 252 252 253 254 255 258 260 263 265 267 268 270 272 274 277 279 281 283 284 284 285 286 288 288 288 289 290 291 293 296 297 298 299 302 302 303
230 230 233 240 243 246 252 254 253 253 254 255 256 258 261 263 266 268 270 272 274 276 278 281 282 283 284 285 286 286 286 288 288 289 292 294 295 297 298 299 300 301 301
228 233 236 238 243 247 249 254 254 257 257 259 261 261 263 264 265 267 270 272 273 275 277 279 280 282 284 285 285 285 286 286 288 289 291 293 294 295 295 297 298 298 299
228 231 237 241 244 245 250 253 254 255 257 258 260 261 263 264 265 267 269 271 272 274 277 278 280 282 283 284 285 285 287 287 285 287 289 290 291 292 294 295 296 297 298
225 230 235 240 243 246 250 252 255 258 260 260 261 262 262 264 266 268 269 270 271 273 275 277 278 279 281 282 284 285 286 286 284 287 290 291 291 293 293 292 295 297 297
226 227 231 237 243 246 249 251 252 256 258 261 263 262 263 264 268 270 270 270 271 273 275 277 278 279 279 280 282 284 284 284 284 284 288 291 291 292 291 293 293 295 294
228 227 230 235 239 245 250 253 256 258 260 260 263 265 265 265 266 269 270 272 273 274 275 277 278 280 281 282 284 285 283 284 284 284 287 288 290 291 291 292 293 294 295
228 228 232 234 236 241 248 254 257 258 257 257 256 259 262 262 264 268 270 271 273 275 276 279 278 280 282 281 281 283 285 286 287 288 288 290 291 290 291 292 292 295 296
Height
10857 10858 10860 10861 10864 10866 10867 10868 10869 10869 10870 10870 10871 10871 10871 10871 10871 10871 10872 10871 10871 10870 10870 10870 10869 10867 10866 10866 10864 10864 10863 10862 10861 10860 10859 10858 10856 10855 10853 10852 10849 10847 10845
10851 10852 10854 10857 10859 10861 10862 10864 10865 10866 10867 10867 10867 10868 10868 10868 10869 10869 10869 10868 10868 10867 10867 10866 10865 10864 10863 10862 10860 10860 10859 10858 10857 10856 10855 10853 10852 10850 10849 10846 10844 10842 10839
10844 10847 10849 10851 10853 10855 10857 10859 10861 10862 10863 10864 10864 10864 10865 10865 10865 10865 10865 10865 10864 10864 10863 10862 10861 10860 10858 10857 10856 10856 10855 10854 10852 10851 10850 10848 10846 10845 10843 10841 10838 10836 10833
10838 10841 10843 10845 10848 10849 10851 10854 10856 10857 10858 10859 10859 10860 10861 10861 10862 10861 10861 10860 10860 10859 10858 10857 10856 10855 10854 10853 10852 10851 10850 10849 10847 10846 10844 10843 10841 10839 10838 10836 10833 10830 10827
10831 10834 10837 10839 10842 10844 10846 10848 10850 10852 10853 10854 10855 10855 10855 10856 10856 10857 10857 10856 10856 10855 10854 10853 10852 10850 10849 10848 10847 10846 10845 10844 10843 10841 10840 10838 10836 10834 10832 10830 10828 10825 10822
10824 10828 10830 10832 10835 10838 10840 10842 10844 10846 10848 10849 10850 10850 10851 10850 10851 10851 10851 10851 10851 10851 10850 10848 10847 10846 10845 10844 10842 10841 10840 10839 10838 10836 10835 10833 10831 10829 10827 10825 10823 10820 10816
10817 10821 10823 10826 10830 10832 10834 10836 10838 10841 10842 10844 10845 10846 10846 10845 10846 10846 10846 10846 10845 10845 10845 10844 10842 10840 10839 10838 10837 10836 10834 10833 10832 10831 10829 10828 10826 10824 10821 10818 10816 10813 10810
10809 10813 10817 10820 10823 10826 10827 10830 10832 10835 10836 10838 10839 10840 10840 10840 10841 10840 10841 10840 10840 10840 10839 10838 10837 10836 10834 10833 10832 10831 10829 10828 10827 10825 10823 10821 10819 10817 10814 10812 10809 10806 10803
10801 10804 10809 10813 10816 10819 10821 10823 10826 10829 10830 10832 10834 10833 10833 10835 10835 10835 10835 10834 10834 10833 10833 10832 10832 10831 10829 10828 10827 10825 10824 10823 10821 10819 10817 10815 10813 10810 10807 10805 10802 10798 10795
10792 10796 10800 10804 10808 10811 10813 10816 10819 10822 10824 10825 10826 10826 10827 10828 10829 10829 10829 10829 10828 10828 10827 10826 10825 10824 10824 10822 10821 10819 10818 10816 10815 10813 10811 10809 10806 10804 10801 10797 10793 10791 10787
10782 10786 10791 10796 10800 10802 10805 10808 10811 10815 10818 10818 10817 10817 10820 10821 10822 10822 10822 10823 10822 10822 10821 10820 10819 10818 10817 10816 10814 10813 10811 10810 10808 10807 10805 10802 10800 10797 10793 10790 10786 10782 10779
10770 10775 10782 10787 10791 10794 10797 10800 10803 10807 10809 10811 10808 10810 10813 10814 10815 10816 10816 10816 10815 10815 10815 10814 10813 10812 10810 10809 10808 10806 10804 10803 10801 10799 10796 10794 10792 10789 10785 10782 10777 10774 10770
10761 10766 10772 10777 10781 10785 10788 10791 10796 10799 10802 10803 10802 10804 10806 10807 10808 10809 10809 10808 10808 10807 10807 10807 10806 10805 10803 10801 10800 10798 10797 10795 10793 10791 10789 10787 10784 10780 10777 10773 10769 10765 10761
10751 10756 10762 10767 10771 10776 10780 10784 10787 10791 10793 10796 10796 10796 10798 10800 10801 10801 10801 10801 10800 10799 10799 10799 10798 10797 10796 10794 10793 10791 10789 10787 10785 10783 10780 10778 10774 10771 10767 10764 10761 10757 10752
10745 10747 10753 10759 10763 10767 10772 10776 10779 10782 10784 10787 10789 10789 10790 10792 10793 10792 10793 10793 10792 10792 10791 10791 10790 10789 10787 10786 10784 10782 10780 10778 10776 10774 10771 10769 10765 10762 10759 10755 10751 10748 10744
10739 10742 10745 10750 10754 10758 10762 10767 10771 10773 10775 10778 10780 10781 10783 10783 10783 10783 10784 10784 10784 10783 10783 10782 10781 10780 10779 10777 10775 10773 10771 10769 10766 10764 10761 10759 10755 10752 10749 10745 10742 10738 10734
10739 10738 10734 10738 10744 10748 10752 10757 10761 10764 10766 10768 10771 10772 10773 10773 10773 10774 10774 10775 10774 10774 10773 10772 10771 10770 10768 10766 10765 10763 10761 10759 10757 10754 10752 10748 10744 10741 10738 10735 10732 10728 10725
10727 10726 10728 10727 10733 10739 10743 10748 10751 10755 10758 10759 10761 10762 10763 10763 10763 10764 10764 10764 10764 10764 10763 10762 10761 10759 10758 10756 10755 10753 10750 10748 10746 10743 10740 10737 10734 10730 10728 10725 10722 10718 10714
10712 10718 10717 10717 10724 10730 10733 10739 10743 10745 10747 10749 10751 10752 10753 10753 10753 10753 10753 10754 10753 10753 10753 10752 10751 10749 10747 10745 10743 10741 10739 10737 10734 10731 10728 10726 10724 10720 10716 10713 10710 10707 10704
10699 10705 10709 10711 10716 10719 10723 10728 10732 10735 10737 10739 10742 10742 10742 10742 10742 10742 10742 10743 10744 10743 10743 10741 10740 10738 10736 10734 10732 10730 10728 10725 10722 10719 10717 10715 10712 10708 10705 10701 10698 10695 10692
10686 10692 10697 10701 10705 10709 10714 10719 10723 10726 10728 10730 10731 10732 10732 10731 10731 10731 10732 10731 10732 10732 10731 10730 10728 10726 10725 10723 10721 10718 10716 10713 10711 10709 10707 10703 10700 10696 10693 10689 10686 10682 10678
10674 10681 10686 10690 10694 10699 10704 10708 10712 10715 10716 10719 10720 10720 10720 10720 10718 10720 10720 10720 10720 10720 10718 10717 10716 10714 10712 10710 10708 10706 10704 10701 10698 10695 10693 10690 10687 10683 10680 10676 10672 10668 10664
10661 10668 10673 10678 10683 10689 10694 10698 10701 10703 10705 10707 10709 10710 10709 10708 10707 10708 10709 10708 10707 10706 10706 10705 10703 10701 10699 10697 10694 10692 10690 10688 10685 10680 10676 10675 10672 10669 10665 10660 10656 10652 10648
10645 10655 10663 10668 10672 10677 10681 10684 10687 10691 10693 10696 10697 10697 10697 10696 10696 10696 10695 10695 10695 10694 10693 10691 10689 10687 10685 10682 10679 10677 10675 10672 10669 10666 10660 10655 10654 10652 10646 10643 10638 10635 10629
10632 10641 10650 10656 10664 10670 10672 10675 10677 10679 10682 10683 10683 10683 10685 10683 10682 10682 10681 10681 10681 10680 10679 10677 10675 10673 10669 10667 10664 10660 10656 10653 10651 10647 10642 10642 10636 10630 10625 10623 10620 10615 10610
10619 10629 10638 10645 10652 10657 10660 10664 10664 10666 10667 10666 10667 10669 10669 10670 10670 10668 10668 10668 10669 10667 10666 10663 10660 10657 10653 10650 10647 10643 10639 10635 10632 10628 10624 10618 10616 10610 10606 10602 10599 10595 10591